Montpelier, VT

3:08 PM EST on November 13, 2019 (GMT -0500)
Knapp State

Weather History for KMPV - August, 2019

Change the Weather History Date:

Monday, August 19, 2019

  Actual Average Record
Temperature  
Mean Temperature 72 °F 65 °F  
Max Temperature 80 °F 77 °F 87 °F (2015)
Min Temperature 63 °F 54 °F 38 °F (1968)
Degree Days  
Heating Degree Days 0 2  
Month to date heating degree days 20 34  
Since 1 June heating degree days 173 195  
Since 1 July heating degree days 29 74  
Cooling Degree Days 6 2  
Month to date cooling degree days 40 54  
Year to date cooling degree days 198 222  
Since 1 June cooling degree days 197 212  
Growing Degree Days 22 (Base 50)    
Moisture  
Dew Point 65 °F    
Average Humidity 85    
Maximum Humidity 100    
Minimum Humidity 57    
Precipitation  
Precipitation T in 0.12 in 0.81 in (1991)
Month to date precipitation 3.11 2.74  
Year to date precipitation 33.66 23.53  
Sea Level Pressure  
Sea Level Pressure 29.97 in    
Wind  
Wind Speed 3 mph ()    
Max Wind Speed 16 mph    
Max Gust Speed 21 mph    
Visibility 7.4 miles    
Events      
T = Trace of Precipitation, MM = Missing Value Source: Averaged Metar Reports

Daily Weather History Graph

Daily Weather History Graph

Search for Another Location

Airport or City:

Astronomy

Aug. 19, 2019 Rise Set
Actual Time 5:57 AM EDT 7:48 PM EDT
Civil Twilight 5:26 AM EDT 8:19 PM EDT
Nautical Twilight 4:49 AM EDT 8:57 PM EDT
Astronomical Twilight 4:07 AM EDT 9:38 PM EDT
Moon 10:00 PM EDT (8/19) 9:43 AM EDT (8/19)
Length of Visible Light 14h 52m
Length of Day
13h 50m
Waning Gibbous, 85% of the Moon is Illuminated
Aug 19
Waning Gibbous
Aug 23
Last Quarter
Aug 30
New
Sep 5
First Quarter
Sep 14
Full

Hourly Weather History & Observations

Time (EDT) Temp. Heat Index Dew Point Humidity Pressure Visibility Wind Dir Wind Speed Gust Speed Precip Events Conditions
12:51 AM 68.0 °F - 66.9 °F 96% 29.95 in 10.0 mi SE 3.5 mph - N/A   Mostly Cloudy
1:51 AM 66.0 °F - 66.0 °F 100% 29.93 in 10.0 mi Calm Calm - N/A   Clear
2:19 AM 64.9 °F - 64.9 °F 100% 29.97 in 2.0 mi NW 3.5 mph - N/A   Scattered Clouds
2:35 AM 64.9 °F - 64.9 °F 100% 29.97 in 7.0 mi Calm Calm - N/A   Partly Cloudy
2:51 AM 66.0 °F - 64.9 °F 96% 29.96 in 10.0 mi East 5.8 mph - N/A   Clear
2:54 AM 66.0 °F - 64.9 °F 96% 29.98 in 2.5 mi ENE 3.5 mph - N/A   Partly Cloudy
2:56 AM 64.9 °F - 64.9 °F 100% 29.98 in 1.2 mi East 3.5 mph - N/A   Partly Cloudy
3:02 AM 64.9 °F - 64.9 °F 100% 29.98 in 0.8 mi Calm Calm - N/A   Scattered Clouds
3:05 AM 64.9 °F - 64.9 °F 100% 29.98 in 1.5 mi Calm Calm - N/A   Scattered Clouds
3:10 AM 64.9 °F - 64.9 °F 100% 29.98 in 3.0 mi South 3.5 mph - N/A   Partly Cloudy
3:51 AM 66.9 °F - 66.0 °F 97% 29.96 in 10.0 mi SSW 6.9 mph - N/A   Clear
4:51 AM 66.9 °F - 66.0 °F 97% 29.97 in 10.0 mi SSW 4.6 mph - N/A   Scattered Clouds
5:29 AM 64.9 °F - 64.9 °F 100% 29.98 in 2.5 mi ENE 3.5 mph - N/A   Scattered Clouds
5:31 AM 64.9 °F - 64.9 °F 100% 29.98 in 1.2 mi Calm Calm - N/A   Scattered Clouds
5:33 AM 64.9 °F - 64.9 °F 100% 29.98 in 0.8 mi ENE 3.5 mph - N/A   Mostly Cloudy
5:42 AM 64.9 °F - 64.9 °F 100% 29.98 in 1.0 mi Calm Calm - N/A   Mist
5:44 AM 64.9 °F - 64.9 °F 100% 29.98 in 1.8 mi Calm Calm - N/A   Partly Cloudy
5:46 AM 64.4 °F - 64.4 °F 100% 29.98 in 4.0 mi Calm Calm - N/A   Partly Cloudy
5:51 AM 64.9 °F - 64.9 °F 100% 29.96 in 10.0 mi Calm Calm - N/A   Partly Cloudy
6:51 AM 68.0 °F - 66.0 °F 93% 29.98 in 10.0 mi SSE 5.8 mph - N/A   Mostly Cloudy
7:12 AM 68.0 °F - 66.0 °F 93% 29.99 in 10.0 mi South 6.9 mph - N/A   Scattered Clouds
7:51 AM 69.1 °F - 66.0 °F 90% 29.98 in 10.0 mi SSW 3.5 mph - N/A   Mostly Cloudy
8:51 AM 70.0 °F - 66.0 °F 87% 29.99 in 10.0 mi SSE 4.6 mph - N/A   Mostly Cloudy
9:51 AM 69.1 °F - 66.9 °F 93% 29.96 in 10.0 mi SSW 4.6 mph - 0.00 in   Partly Cloudy
10:51 AM 75.9 °F - 68.0 °F 76% 29.97 in 10.0 mi South 5.8 mph - N/A   Clear
11:51 AM 78.1 °F - 66.0 °F 66% 29.96 in 10.0 mi SW 11.5 mph - N/A   Partly Cloudy
12:51 PM 78.1 °F - 64.9 °F 64% 29.96 in 10.0 mi West 6.9 mph - N/A   Partly Cloudy
1:51 PM 80.1 °F 81.7 °F 64.0 °F 58% 29.97 in 10.0 mi WSW 11.5 mph 18.4 mph N/A   Scattered Clouds
2:51 PM 79.0 °F - 64.9 °F 62% 29.96 in 10.0 mi SW 9.2 mph - N/A   Mostly Cloudy
3:51 PM 78.1 °F - 64.9 °F 64% 29.94 in 10.0 mi SW 5.8 mph - N/A   Partly Cloudy
4:51 PM 80.1 °F 82.1 °F 66.0 °F 62% 29.93 in 10.0 mi North - - N/A   Clear
5:51 PM 79.0 °F - 64.0 °F 60% 29.93 in 10.0 mi WSW 5.8 mph - N/A   Mostly Cloudy
6:51 PM 78.1 °F - 64.0 °F 62% 29.94 in 10.0 mi SW 5.8 mph - N/A   Partly Cloudy
7:51 PM 75.9 °F - 63.0 °F 64% 29.96 in 10.0 mi WSW 5.8 mph - N/A   Scattered Clouds
8:51 PM 73.9 °F - 60.1 °F 62% 30.01 in 10.0 mi West 4.6 mph - N/A   Clear
9:51 PM 73.0 °F - 57.9 °F 59% 30.02 in 10.0 mi West 4.6 mph - N/A   Mostly Cloudy
10:51 PM 69.1 °F - 59.0 °F 70% 30.03 in 10.0 mi West 4.6 mph - N/A   Clear
11:51 PM 69.1 °F - 57.9 °F 68% 30.03 in 10.0 mi West 5.8 mph - N/A   Clear